Weather History for KPQN - March, 2013

Change the Weather History Date:

Friday, March 8, 2013

  Actual Average Record
Temperature  
Mean Temperature 31 °F -  
Max Temperature 39 °F 29 °F 53 °F (2004)
Min Temperature 23 °F 14 °F 0 °F (2003)
Degree Days  
Heating Degree Days 34    
Moisture  
Dew Point 28 °F    
Average Humidity 88    
Maximum Humidity 100    
Minimum Humidity 70    
Precipitation  
Precipitation 0.04 in - - ()
Sea Level Pressure  
Sea Level Pressure 30.09 in    
Wind  
Wind Speed 9 mph (SE)    
Max Wind Speed 16 mph    
Max Gust Speed 22 mph    
Visibility 5 miles    
Events Rain    
Averages and records for this station are not official NWS values.
T = Trace of Precipitation, MM = Missing Value Source: NWS Daily Summary

Daily Weather History Graph

Daily Weather History Graph

Search for Another Location

Airport or City:

Trip Planner

Search our weather history database for the weather conditions in past years. The results will help you decide how hot, cold, wet, or windy it might be!

Date:

Astronomy

Mar. 08, 2013 Rise Set
Actual Time 6:49 AM CST 6:22 PM CST
Civil Twilight 6:20 AM CST 6:51 PM CST
Nautical Twilight 5:47 AM CST 7:25 PM CST
Astronomical Twilight 5:13 AM CST 7:58 PM CST
Moon 4:40 AM CST (3/8) 3:14 PM CST (3/8)
Length of Visible Light 12h 31m
Length of Day
11h 33m
Waning Crescent, 11% of the Moon is Illuminated
Mar 8
Waning Crescent
Mar 11
New
Mar 19
First Quarter
Mar 27
Full
Apr 2
Last Quarter

Hourly Weather History & Observations

Time (CST) Temp. Windchill Dew Point Humidity Pressure Visibility Wind Dir Wind Speed Gust Speed Precip Events Conditions
12:13 AM 26.6 °F 16.8 °F 24.8 °F 93% 30.16 in 5.0 mi South 10.4 mph - N/A   Clear
12:33 AM 26.6 °F 16.2 °F 24.8 °F 93% 30.16 in 5.0 mi South 11.5 mph - N/A   Clear
12:53 AM 26.6 °F 16.8 °F 24.8 °F 93% 30.17 in 5.0 mi South 10.4 mph - N/A   Clear
1:13 AM 26.6 °F 17.5 °F 24.8 °F 93% 30.17 in 5.0 mi South 9.2 mph - N/A   Clear
1:53 AM 26.6 °F 18.2 °F 24.8 °F 93% 30.18 in 7.0 mi South 8.1 mph - N/A   Clear
2:13 AM 26.6 °F 16.8 °F 24.8 °F 93% 30.17 in 7.0 mi South 10.4 mph - N/A   Clear
2:33 AM 26.6 °F 18.2 °F 24.8 °F 93% 30.17 in 7.0 mi South 8.1 mph - N/A   Clear
2:53 AM 26.6 °F 18.2 °F 24.8 °F 93% 30.17 in 7.0 mi South 8.1 mph - N/A   Clear
3:10 AM 26.6 °F 19.1 °F 23.0 °F 86% 30.16 in 7.0 mi South 6.9 mph - N/A   Clear
3:33 AM 26.6 °F - 23.0 °F 86% 30.16 in 7.0 mi Calm Calm - N/A   Clear
3:53 AM 26.6 °F 19.1 °F 23.0 °F 86% 30.15 in 7.0 mi SSE 6.9 mph - N/A   Clear
4:13 AM 24.8 °F 16.9 °F 23.0 °F 93% 30.15 in 7.0 mi SSE 6.9 mph - N/A   Clear
4:33 AM 26.6 °F 18.2 °F 23.0 °F 86% 30.16 in 5.0 mi SSE 8.1 mph - N/A   Clear
4:53 AM 26.6 °F 19.1 °F 23.0 °F 86% 30.16 in 5.0 mi SSE 6.9 mph - N/A   Clear
5:13 AM 24.8 °F 16.9 °F 23.0 °F 93% 30.16 in 5.0 mi SSE 6.9 mph - N/A   Clear
5:33 AM 24.8 °F 16.9 °F 23.0 °F 93% 30.16 in 5.0 mi SSE 6.9 mph - N/A   Clear
5:53 AM 24.8 °F 16.9 °F 21.2 °F 86% 30.16 in 5.0 mi SSE 6.9 mph - N/A   Clear
6:33 AM 24.8 °F 16.9 °F 23.0 °F 93% 30.17 in 5.0 mi SSE 6.9 mph - N/A   Clear
6:53 AM 24.8 °F 16.9 °F 21.2 °F 86% 30.16 in 4.0 mi SSE 6.9 mph - N/A   Clear
7:13 AM 24.8 °F 20.5 °F 21.2 °F 86% 30.16 in 4.0 mi SE 3.5 mph - N/A   Clear
7:33 AM 23.0 °F - 21.2 °F 93% 30.17 in 4.0 mi Calm Calm - N/A   Clear
7:53 AM 24.8 °F - 21.2 °F 86% 30.16 in 4.0 mi Calm Calm - N/A   Clear
8:13 AM 26.6 °F 22.6 °F 23.0 °F 86% 30.16 in 4.0 mi SE 3.5 mph - N/A   Clear
8:33 AM 26.6 °F 21.2 °F 24.8 °F 93% 30.16 in 5.0 mi ESE 4.6 mph - N/A   Clear
8:53 AM 28.4 °F 22.2 °F 24.8 °F 86% 30.17 in 5.0 mi SE 5.8 mph - N/A   Clear
9:13 AM 28.4 °F 21.2 °F 24.8 °F 86% 30.16 in 7.0 mi SE 6.9 mph - N/A   Clear
9:33 AM 28.4 °F 20.4 °F 24.8 °F 86% 30.16 in 7.0 mi SE 8.1 mph - N/A   Clear
9:53 AM 30.2 °F 22.6 °F 26.6 °F 86% 30.16 in 7.0 mi SE 8.1 mph - N/A   Clear
10:13 AM 30.2 °F 22.6 °F 26.6 °F 86% 30.15 in 7.0 mi SSE 8.1 mph - N/A   Clear
10:34 AM 32.0 °F 24.8 °F 26.6 °F 80% 30.16 in 7.0 mi South 8.1 mph - N/A   Clear
10:53 AM 32.0 °F 24.2 °F 28.4 °F 87% 30.15 in 7.0 mi SSE 9.2 mph - N/A   Clear
11:13 AM 33.8 °F 26.4 °F 28.4 °F 81% 30.13 in 7.0 mi SSE 9.2 mph - 0.01 in   Clear
11:33 AM 33.8 °F - 28.4 °F 81% 30.13 in 7.0 mi Calm Calm - N/A   Clear
11:53 AM 35.6 °F 28.6 °F 30.2 °F 81% 30.12 in 7.0 mi ESE 9.2 mph - N/A   Clear
12:13 PM 35.6 °F 29.9 °F 30.2 °F 81% 30.12 in 7.0 mi SE 6.9 mph - N/A   Clear
12:34 PM 37.4 °F 32.1 °F 30.2 °F 75% 30.11 in - ESE 6.9 mph - N/A   Clear
12:53 PM 39.2 °F 35.0 °F 30.2 °F 70% 30.11 in 7.0 mi East 5.8 mph - N/A   Clear
1:04 PM 39.2 °F 35.0 °F 30.2 °F 70% 30.11 in 10.0 mi East 5.8 mph - N/A   Clear
1:33 PM 39.2 °F 34.2 °F 33.8 °F 81% 30.09 in 7.0 mi ESE 6.9 mph - N/A   Clear
1:53 PM 39.2 °F 33.6 °F 32.0 °F 75% 30.08 in 7.0 mi East 8.1 mph - N/A   Clear
2:13 PM 39.2 °F 33.6 °F 33.8 °F 81% 30.07 in 7.0 mi East 8.1 mph - N/A   Clear
2:33 PM 37.4 °F 30.3 °F 32.0 °F 81% 30.07 in 7.0 mi East 10.4 mph - N/A   Clear
2:53 PM 37.4 °F 29.8 °F 32.0 °F 81% 30.06 in 5.0 mi East 11.5 mph - N/A   Haze
3:13 PM 37.4 °F 29.3 °F 32.0 °F 81% 30.05 in 5.0 mi East 12.7 mph - N/A   Haze
3:33 PM 37.4 °F 29.8 °F 33.8 °F 87% 30.04 in 5.0 mi East 11.5 mph - N/A   Haze
3:53 PM 37.4 °F 29.3 °F 33.8 °F 87% 30.04 in 5.0 mi ESE 12.7 mph 18.4 mph N/A   Haze
4:13 PM 37.4 °F 28.9 °F 33.8 °F 87% 30.04 in 5.0 mi ESE 13.8 mph 18.4 mph N/A   Clear
4:33 PM 37.4 °F 28.2 °F 33.8 °F 87% 30.04 in 5.0 mi ESE 16.1 mph - N/A   Clear
4:53 PM 35.6 °F 27.1 °F 33.8 °F 93% 30.02 in 4.0 mi East 12.7 mph 18.4 mph N/A   Clear
5:13 PM 35.6 °F 27.1 °F 33.8 °F 93% 30.01 in 4.0 mi East 12.7 mph 17.3 mph N/A   Clear
5:33 PM 35.6 °F 27.5 °F 32.0 °F 87% 30.01 in 4.0 mi East 11.5 mph - N/A   Clear
5:53 PM 35.6 °F 28.6 °F 32.0 °F 87% 30.01 in 4.0 mi East 9.2 mph - N/A   Clear
6:13 PM 35.6 °F 26.2 °F 32.0 °F 87% 30.00 in 3.0 mi ESE 15.0 mph - N/A   Clear
6:33 PM 33.8 °F 24.3 °F 32.0 °F 93% 30.00 in 3.0 mi ESE 13.8 mph - N/A   Mostly Cloudy
6:53 PM 33.8 °F 25.3 °F 32.0 °F 93% 30.00 in 4.0 mi ESE 11.5 mph - N/A   Overcast
7:14 PM 33.8 °F 25.3 °F 32.0 °F 93% 30.01 in 4.0 mi SE 11.5 mph - N/A   Overcast
7:33 PM 33.8 °F 25.8 °F 32.0 °F 93% 30.00 in 3.0 mi SE 10.4 mph - N/A   Overcast
7:53 PM 33.8 °F 25.3 °F 32.0 °F 93% 29.99 in 3.0 mi SE 11.5 mph - N/A   Overcast
8:13 PM 33.8 °F 25.3 °F 32.0 °F 93% 29.99 in 3.0 mi SE 11.5 mph - N/A   Overcast
8:33 PM 33.8 °F 25.3 °F 32.0 °F 93% 29.98 in 4.0 mi SE 11.5 mph - N/A   Overcast
8:53 PM 33.8 °F 24.8 °F 32.0 °F 93% 29.97 in 4.0 mi SE 12.7 mph - N/A   Overcast
9:14 PM 33.8 °F 24.8 °F 32.0 °F 93% 29.96 in 4.0 mi SE 12.7 mph - N/A   Overcast
9:33 PM 33.8 °F 23.5 °F 32.0 °F 93% 29.95 in 4.0 mi SE 16.1 mph - N/A   Overcast
9:53 PM 33.8 °F 24.3 °F 32.0 °F 93% 29.96 in 4.0 mi SE 13.8 mph 21.9 mph N/A   Overcast
10:13 PM 33.8 °F 23.9 °F 32.0 °F 93% 29.95 in 4.0 mi SSE 15.0 mph 19.6 mph N/A   Overcast
10:53 PM 33.8 °F 24.3 °F 33.8 °F 100% 29.94 in 3.0 mi SSE 13.8 mph 19.6 mph 0.01 in   Overcast
11:12 PM 33.8 °F 24.3 °F 33.8 °F 100% 29.93 in 2.5 mi SSE 13.8 mph - 0.02 in   Overcast
11:33 PM 33.8 °F 24.3 °F 33.8 °F 100% - 2.5 mi SSE 13.8 mph - 0.01 in   Overcast
11:53 PM - - - N/A% 29.90 in 2.5 mi SSE 16.1 mph - 0.01 in Rain Light Rain